Location: C�an Torras
(41.5052°N, 1.9280°E)
Time: 02:00:17
(UTC+00:00)

Cosmos 1844 - Pass Details

Date: 20 January 2021
Orbit: 821 x 869 km, 70.9° (Epoch: 08 March)

Event Time Altitude Azimuth Distance (km) Brightness Sun altitude
Rises 17:44:00 0° 177° (S) 3,362 7.0 -9.6°
Reaches altitude 10° 17:46:36 10° 168° (SSE) 2,439 6.2 -10.0°
Maximum altitude 17:51:37 35° 104° (ESE) 1,343 4.3 -10.9°
Enters shadow 17:56:36 10° 42° (NE) 2,451 5.6 -11.8°
